South St. Paul, MN

5:00 AM CDT on October 16, 2019 (GMT -0500)
South Saint Paul Municipal-Fleming

Weather History for KSGS - September, 2019

Change the Weather History Date:

Saturday, September 21, 2019

  Actual Average (KSTP) Record (KSTP)
Temperature  
Mean Temperature 75 °F -  
Max Temperature 81 °F 67 °F 88 °F (2005)
Min Temperature 70 °F 47 °F 36 °F (1999)
Cooling Degree Days 10    
Growing Degree Days 25 (Base 50)    
Moisture  
Dew Point 69 °F    
Average Humidity 84    
Maximum Humidity 99    
Minimum Humidity 64    
Precipitation  
Precipitation 0.11 in - - ()
Sea Level Pressure  
Sea Level Pressure 29.80 in    
Wind  
Wind Speed 8 mph (South)    
Max Wind Speed 17 mph    
Max Gust Speed 26 mph    
Visibility 10 miles    
Events Rain , Thunderstorm    
Averages and records for this station are not official NWS values.
T = Trace of Precipitation, MM = Missing Value Source: NWS Daily Summary

Daily Weather History Graph

Daily Weather History Graph

Search for Another Location

Airport or City:

Astronomy

Sep. 21, 2019 Rise Set
Actual Time 6:57 AM CDT 7:11 PM CDT
Civil Twilight 6:28 AM CDT 7:41 PM CDT
Nautical Twilight 5:54 AM CDT 8:15 PM CDT
Astronomical Twilight 5:18 AM CDT 8:50 PM CDT
Moon 11:33 PM CDT (9/21) 2:21 PM CDT (9/21)
Length of Visible Light 13h 12m
Length of Day
12h 14m
Waning Gibbous, 54% of the Moon is Illuminated
Sep 21
Waning Gibbous
Sep 21
Last Quarter
Sep 28
New
Oct 5
First Quarter
Oct 13
Full

Hourly Weather History & Observations

Time (CDT) Temp. Heat Index Dew Point Humidity Pressure Visibility Wind Dir Wind Speed Gust Speed Precip Events Conditions
12:15 AM 73.4 °F - 68.9 °F 86% 29.91 in 10.0 mi SSE 5.8 mph - N/A   Clear
12:35 AM 73.4 °F - 68.9 °F 86% 29.91 in 10.0 mi SSE 5.8 mph - N/A   Clear
12:55 AM 72.9 °F - 68.5 °F 86% 29.90 in 10.0 mi SE 5.8 mph - N/A   Clear
12:56 AM 72.9 °F - 68.5 °F 86% 29.90 in 10.0 mi SE 5.8 mph - N/A   Clear
1:15 AM 72.7 °F - 68.4 °F 86% 29.90 in 10.0 mi SSE 4.6 mph - N/A   Clear
1:16 AM 72.7 °F - 68.4 °F 86% 29.90 in 10.0 mi SSE 4.6 mph - N/A   Clear
1:35 AM 72.5 °F - 68.2 °F 86% 29.90 in 10.0 mi SE 4.6 mph - N/A   Clear
1:55 AM 72.5 °F - 68.2 °F 86% 29.90 in 10.0 mi SSE 4.6 mph - N/A   Clear
2:15 AM 72.5 °F - 68.0 °F 86% 29.90 in 10.0 mi SSE 4.6 mph - N/A   Clear
2:16 AM 72.5 °F - 68.0 °F 86% 29.90 in 10.0 mi SSE 4.6 mph - N/A   Clear
2:35 AM 72.5 °F - 68.0 °F 86% 29.90 in 10.0 mi SSE 5.8 mph - N/A   Clear
2:55 AM 72.1 °F - 68.0 °F 87% 29.89 in 10.0 mi SSE 6.9 mph - N/A   Clear
3:15 AM 72.0 °F - 68.0 °F 87% 29.88 in 10.0 mi SSE 5.8 mph - N/A   Clear
3:16 AM 72.0 °F - 68.0 °F 87% 29.88 in 10.0 mi SSE 5.8 mph - N/A   Clear
3:35 AM 72.0 °F - 68.0 °F 87% 29.87 in 10.0 mi SSE 5.8 mph - N/A   Clear
3:55 AM 72.0 °F - 68.0 °F 87% 29.85 in 10.0 mi SSE 5.8 mph - N/A   Clear
3:56 AM 72.0 °F - 68.0 °F 87% 29.86 in 10.0 mi SSE 6.9 mph - N/A   Clear
4:15 AM 72.1 °F - 68.0 °F 87% 29.86 in 10.0 mi SSE 6.9 mph - N/A Thunderstorm Scattered Clouds
4:16 AM 72.1 °F - 68.0 °F 87% 29.86 in 10.0 mi SSE 5.8 mph - N/A Thunderstorm Scattered Clouds
4:35 AM 72.0 °F - 68.2 °F 88% 29.85 in 7.0 mi SSE 8.1 mph - N/A Rain , Thunderstorm Light Thunderstorms and Rain
4:36 AM 72.0 °F - 68.4 °F 88% 29.85 in 7.0 mi SSE 11.5 mph 19.6 mph N/A Rain , Thunderstorm Light Thunderstorms and Rain
4:55 AM 70.9 °F - 69.1 °F 94% 29.85 in 3.0 mi SSE 6.9 mph 19.6 mph N/A Rain , Thunderstorm Light Thunderstorms and Rain
4:56 AM 70.7 °F - 69.1 °F 95% 29.85 in 3.0 mi SSE 6.9 mph 19.6 mph N/A Rain , Thunderstorm Light Thunderstorms and Rain
5:15 AM 70.7 °F - 69.6 °F 96% 29.84 in 10.0 mi South 4.6 mph - 0.09 in Thunderstorm Scattered Clouds
5:16 AM 70.7 °F - 69.6 °F 96% 29.84 in 7.0 mi South 3.5 mph - 0.09 in Thunderstorm Scattered Clouds
5:35 AM 70.2 °F - 69.4 °F 98% 29.83 in 5.0 mi SE 4.6 mph - N/A Rain , Thunderstorm Light Thunderstorms and Rain
5:55 AM 70.2 °F - 69.6 °F 98% 29.83 in 7.0 mi SSE 4.6 mph - N/A   Scattered Clouds
5:56 AM 70.2 °F - 69.6 °F 98% 29.83 in 7.0 mi SSE 3.5 mph - N/A   Scattered Clouds
6:15 AM 70.2 °F - 69.6 °F 98% 29.83 in 5.0 mi SSE 5.8 mph - 0.02 in   Scattered Clouds
6:16 AM 70.2 °F - 69.6 °F 98% 29.82 in 5.0 mi SSE 5.8 mph - 0.02 in   Scattered Clouds
6:35 AM 70.2 °F - 69.6 °F 98% 29.82 in 7.0 mi SSE 5.8 mph - 0.02 in   Scattered Clouds
6:55 AM 70.2 °F - 69.8 °F 99% 29.82 in 7.0 mi SSE 5.8 mph - 0.02 in   Mostly Cloudy
7:15 AM 70.7 °F - 69.8 °F 97% 29.82 in 10.0 mi SSE 6.9 mph - N/A   Overcast
7:35 AM 70.9 °F - 69.8 °F 96% 29.82 in 10.0 mi South 5.8 mph - N/A   Overcast
7:55 AM 71.2 °F - 69.8 °F 95% 29.83 in 10.0 mi South 8.1 mph - N/A   Overcast
7:56 AM 71.2 °F - 69.8 °F 95% 29.83 in 10.0 mi South 8.1 mph - N/A   Overcast
8:15 AM 71.4 °F - 69.6 °F 94% 29.82 in 10.0 mi South 9.2 mph 16.1 mph N/A   Mostly Cloudy
8:35 AM 71.8 °F - 70.0 °F 94% 29.82 in 10.0 mi South 8.1 mph - N/A   Scattered Clouds
8:55 AM 71.8 °F - 70.0 °F 94% 29.82 in 10.0 mi SSE 8.1 mph - N/A   Scattered Clouds
8:56 AM 72.0 °F - 70.0 °F 93% 29.82 in 7.0 mi South 9.2 mph - N/A   Scattered Clouds
9:15 AM 72.7 °F - 70.2 °F 92% 29.82 in 10.0 mi South 8.1 mph 16.1 mph N/A   Scattered Clouds
9:16 AM 72.7 °F - 70.3 °F 92% 29.82 in 10.0 mi South 9.2 mph 16.1 mph N/A   Scattered Clouds
9:35 AM 72.9 °F - 70.7 °F 93% 29.81 in 10.0 mi South 12.7 mph 21.9 mph N/A   Scattered Clouds
9:55 AM 73.4 °F - 70.7 °F 91% 29.81 in 10.0 mi South 12.7 mph 21.9 mph N/A Thunderstorm Scattered Clouds
9:56 AM 73.4 °F - 70.7 °F 91% 29.81 in 10.0 mi SSW 15.0 mph 21.9 mph N/A Thunderstorm Scattered Clouds
10:15 AM 73.4 °F - 69.8 °F 88% 29.81 in 10.0 mi South 12.7 mph 16.1 mph N/A Thunderstorm Mostly Cloudy
10:16 AM 73.4 °F - 69.8 °F 88% 29.81 in 10.0 mi South 10.4 mph 16.1 mph N/A Thunderstorm Mostly Cloudy
10:35 AM 74.3 °F - 69.8 °F 86% 29.80 in 10.0 mi South 12.7 mph - N/A   Scattered Clouds
10:36 AM 74.3 °F - 69.8 °F 86% 29.80 in 10.0 mi South 12.7 mph - N/A   Scattered Clouds
10:55 AM 74.3 °F - 69.8 °F 86% 29.79 in 10.0 mi South 9.2 mph - N/A   Scattered Clouds
11:15 AM 74.7 °F - 69.6 °F 84% 29.78 in 10.0 mi South 11.5 mph 17.3 mph N/A   Scattered Clouds
11:35 AM 74.3 °F - 69.8 °F 86% 29.77 in 10.0 mi SSE 13.8 mph 18.4 mph N/A   Scattered Clouds
11:36 AM 74.3 °F - 69.8 °F 86% 29.76 in 10.0 mi SSE 12.7 mph 18.4 mph N/A   Scattered Clouds
11:55 AM 75.6 °F - 70.0 °F 83% 29.76 in 10.0 mi South 17.3 mph 26.5 mph N/A   Scattered Clouds
12:15 PM 76.3 °F - 70.0 °F 81% 29.77 in 10.0 mi South 13.8 mph 19.6 mph N/A   Scattered Clouds
12:35 PM 77.0 °F - 70.3 °F 80% 29.76 in 10.0 mi South 12.7 mph 20.7 mph N/A   Scattered Clouds
12:55 PM 76.3 °F - 70.2 °F 81% 29.77 in 10.0 mi South 15.0 mph 19.6 mph N/A   Scattered Clouds
1:15 PM 76.1 °F - 70.0 °F 81% 29.77 in 10.0 mi South 15.0 mph 20.7 mph N/A   Scattered Clouds
1:35 PM 76.1 °F - 70.0 °F 81% 29.77 in 10.0 mi South 9.2 mph 19.6 mph N/A   Scattered Clouds
1:55 PM 75.9 °F - 70.2 °F 82% 29.77 in 10.0 mi South 8.1 mph - N/A   Scattered Clouds
1:56 PM 75.9 °F - 70.2 °F 82% 29.77 in 10.0 mi SSE 8.1 mph - N/A   Scattered Clouds
2:15 PM 76.1 °F - 70.5 °F 83% 29.76 in 10.0 mi SSE 9.2 mph - N/A   Mostly Cloudy
2:16 PM 76.1 °F - 70.3 °F 82% 29.76 in 10.0 mi SSE 8.1 mph - N/A   Mostly Cloudy
2:35 PM 76.6 °F - 70.7 °F 82% 29.75 in 10.0 mi SSE 8.1 mph - N/A   Mostly Cloudy
2:36 PM 76.6 °F - 70.7 °F 82% 29.75 in 10.0 mi SSE 6.9 mph - N/A   Mostly Cloudy
2:55 PM 77.9 °F - 70.9 °F 79% 29.75 in 10.0 mi South 10.4 mph 16.1 mph N/A   Scattered Clouds
3:15 PM 78.1 °F - 70.7 °F 78% 29.75 in 10.0 mi South 9.2 mph - N/A   Clear
3:16 PM 78.1 °F - 70.7 °F 78% 29.75 in 10.0 mi South 9.2 mph - N/A   Clear
3:35 PM 78.4 °F - 71.1 °F 78% 29.74 in 10.0 mi South 8.1 mph - N/A   Scattered Clouds
3:55 PM 79.7 °F - 70.9 °F 74% 29.73 in 10.0 mi South 9.2 mph - N/A   Clear
3:56 PM 79.7 °F - 70.9 °F 74% 29.73 in 10.0 mi South 10.4 mph - N/A   Clear
4:15 PM 80.1 °F 83.3 °F 70.3 °F 72% 29.73 in 10.0 mi SSW 10.4 mph - N/A   Scattered Clouds
4:35 PM 80.8 °F 83.9 °F 69.4 °F 68% 29.72 in 10.0 mi SSW 12.7 mph 19.6 mph N/A   Scattered Clouds
4:55 PM 80.1 °F 83.0 °F 69.6 °F 70% 29.73 in 10.0 mi SSW 15.0 mph 23.0 mph N/A   Scattered Clouds
5:15 PM 79.7 °F - 69.6 °F 71% 29.73 in 10.0 mi SSW 11.5 mph 21.9 mph N/A   Scattered Clouds
5:16 PM 79.7 °F - 69.6 °F 71% 29.73 in 10.0 mi SSW 10.4 mph 21.9 mph N/A   Scattered Clouds
5:35 PM 79.9 °F - 69.1 °F 69% 29.73 in 10.0 mi SSW 17.3 mph 25.3 mph N/A   Scattered Clouds
5:36 PM 79.7 °F - 69.1 °F 70% 29.73 in 10.0 mi SSW 17.3 mph 25.3 mph N/A   Scattered Clouds
5:55 PM 79.2 °F - 69.8 °F 73% 29.73 in 10.0 mi SSW 15.0 mph 20.7 mph N/A   Scattered Clouds
6:15 PM 79.2 °F - 70.2 °F 74% 29.73 in 10.0 mi South 12.7 mph 17.3 mph N/A   Clear
6:16 PM 79.0 °F - 70.2 °F 74% 29.73 in 10.0 mi South 13.8 mph 19.6 mph N/A   Clear
6:35 PM 78.4 °F - 70.2 °F 76% 29.73 in 10.0 mi South 12.7 mph 17.3 mph N/A   Clear
6:55 PM 78.1 °F - 70.0 °F 76% 29.74 in 10.0 mi SSW 9.2 mph 16.1 mph N/A   Clear
7:15 PM 77.4 °F - 70.0 °F 78% 29.73 in 10.0 mi SSW 8.1 mph - N/A   Clear
7:16 PM 77.4 °F - 70.2 °F 78% 29.73 in 10.0 mi South 6.9 mph - N/A   Clear
7:35 PM 77.0 °F - 70.2 °F 79% 29.74 in 10.0 mi SSW 8.1 mph - N/A   Clear
7:36 PM 77.0 °F - 70.0 °F 79% 29.74 in 10.0 mi South 8.1 mph - N/A   Clear
7:55 PM 76.5 °F - 70.0 °F 80% 29.74 in 10.0 mi South 9.2 mph - N/A   Clear
8:15 PM 75.7 °F - 70.2 °F 83% 29.75 in 10.0 mi SSW 11.5 mph 16.1 mph N/A   Clear
8:35 PM 75.7 °F - 70.2 °F 83% 29.75 in 10.0 mi SSW 10.4 mph - N/A   Scattered Clouds
8:55 PM 75.6 °F - 70.2 °F 83% 29.76 in 10.0 mi SSW 10.4 mph - N/A   Scattered Clouds
9:15 PM 75.2 °F - 70.2 °F 84% 29.77 in 10.0 mi SSW 9.2 mph - N/A   Clear
9:16 PM 75.2 °F - 70.2 °F 84% 29.77 in 10.0 mi SSW 8.1 mph - N/A   Clear
9:35 PM 75.4 °F - 70.2 °F 84% 29.78 in 10.0 mi WNW 5.8 mph - N/A   Mostly Cloudy
9:36 PM 75.4 °F - 70.3 °F 84% 29.78 in 10.0 mi WNW 5.8 mph - N/A   Mostly Cloudy
9:55 PM 75.2 °F - 70.2 °F 84% 29.78 in 10.0 mi WSW 5.8 mph - N/A   Mostly Cloudy
9:56 PM 75.2 °F - 70.2 °F 84% 29.78 in 10.0 mi WSW 5.8 mph - N/A   Mostly Cloudy
10:15 PM 75.4 °F - 70.0 °F 83% 29.79 in 10.0 mi SW 4.6 mph - N/A   Mostly Cloudy
10:16 PM 75.4 °F - 70.0 °F 83% 29.79 in 10.0 mi SW 4.6 mph - N/A   Mostly Cloudy
10:35 PM 74.7 °F - 69.8 °F 85% 29.79 in 10.0 mi WSW 5.8 mph - N/A   Scattered Clouds
10:55 PM 74.1 °F - 69.1 °F 84% 29.80 in 10.0 mi WSW 4.6 mph - N/A   Clear
10:56 PM 74.3 °F - 68.9 °F 83% 29.80 in 10.0 mi WSW 4.6 mph - N/A   Clear
11:15 PM 74.1 °F - 66.0 °F 76% 29.81 in 10.0 mi West 8.1 mph - N/A   Clear
11:35 PM 73.8 °F - 62.1 °F 67% 29.83 in 10.0 mi WNW 13.8 mph - N/A   Scattered Clouds
11:55 PM 72.5 °F - 59.7 °F 64% 29.83 in 10.0 mi WNW 8.1 mph - N/A   Scattered Clouds